Weather History for LIMH - March, 2013

Change the Weather History Date:

Sunday, March 3, 2013

  Actual Average Record
Temperature  
Mean Temperature 16 °F -  
Max Temperature 21 °F 18 °F 28 °F (1998)
Min Temperature 12 °F 7 °F -4 °F (2005)
Degree Days  
Heating Degree Days 48    
Moisture  
Dew Point -16 °F    
Average Humidity 20    
Maximum Humidity 46    
Minimum Humidity 6    
Precipitation  
Precipitation 0.00 in - - ()
Sea Level Pressure  
Sea Level Pressure 30.00 in    
Wind  
Wind Speed 13 mph ()    
Max Wind Speed 25 mph    
Max Gust Speed -    
Visibility 9.8 miles    
Events      
Averages and records for this station are not official NWS values.
T = Trace of Precipitation, MM = Missing Value Source: Averaged Metar Reports

Daily Weather History Graph

Daily Weather History Graph

Search for Another Location

Airport or City:

Trip Planner

Search our weather history database for the weather conditions in past years. The results will help you decide how hot, cold, wet, or windy it might be!

Date:

Astronomy

Mar. 03, 2013 Rise Set
Actual Time 7:04 AM CET 6:18 PM CET
Civil Twilight 6:34 AM CET 6:48 PM CET
Nautical Twilight 5:59 AM CET 7:23 PM CET
Astronomical Twilight 5:25 AM CET 7:57 PM CET
Moon No Moon Rise 9:45 AM CET (3/3)
Length of Visible Light 12h 14m
Length of Day
11h 14m
Waning Gibbous, 66% of the Moon is Illuminated
Mar 3
Waning Gibbous
Mar 4
Last Quarter
Mar 11
New
Mar 19
First Quarter
Mar 27
Full

Hourly Weather History & Observations

Time (CET) Temp. Windchill Dew Point Humidity Pressure Visibility Wind Dir Wind Speed Gust Speed Precip Events Conditions
12:55 AM 14.0 °F -3.0 °F -22.0 °F 19% 30.01 in - NE 18.4 mph - N/A   Clear
1:00 AM 14 °F - -22 °F 7%  in 7 mi NE 18.4 mph - -  
1:55 AM 14.0 °F -3.4 °F -22.0 °F 19% 30.01 in - NE 19.6 mph - N/A   Clear
2:55 AM 14.0 °F -3.4 °F -22.0 °F 19% 29.98 in - NE 19.6 mph - N/A   Clear
3:55 AM 14.0 °F -5.5 °F -22.0 °F 19% 29.98 in - NE 25.3 mph - N/A   Clear
4:00 AM 13 °F - -22 °F 7%  in 7 mi NE 25.3 mph - -  
4:55 AM 12.2 °F -7.9 °F -22.0 °F 20% 29.98 in - NE 25.3 mph - N/A   Clear
5:55 AM 12.2 °F -5.3 °F -22.0 °F 20% 29.98 in - NE 18.4 mph - N/A   Clear
6:55 AM 12.2 °F -4.8 °F -22.0 °F 20% 29.98 in - ENE 17.3 mph - N/A   Clear
7:00 AM 12 °F - -22 °F 8%  in 19 mi ENE 17.3 mph - -  
9:55 AM 15.8 °F 2.7 °F -22.0 °F 17% 30.01 in - NE 11.5 mph - N/A   Clear
10:00 AM 15 °F - -22 °F 6%  in 47 mi NE 11.5 mph - -  
11:55 AM 15.8 °F 6.1 °F -22.0 °F 17% 30.01 in - ENE 6.9 mph - N/A   Clear
12:55 PM 17.6 °F 2.2 °F -22.0 °F 16% 30.01 in - ENE 17.3 mph - N/A   Clear
1:00 PM 17 °F - -22 °F 6%  in 47 mi ENE 17.3 mph - -  
1:55 PM 17.6 °F 12.3 °F -20.2 °F 18% 30.01 in - ESE 3.5 mph - N/A   Clear
2:55 PM 19.4 °F 14.3 °F -14.8 °F 21% 30.01 in - SSW 3.5 mph - N/A   Clear
3:55 PM 21.2 °F 14.9 °F -7.6 °F 28% 30.01 in - SW 4.6 mph - N/A   Clear
4:00 PM 22 °F - -8 °F 13%  in 37 mi SW 4.6 mph - -  
4:55 PM 21.2 °F 14.9 °F -0.4 °F 39% 30.01 in - SSW 4.6 mph - N/A   Clear
5:55 PM 21.2 °F - 3.2 °F 46% 30.01 in - ENE 2.3 mph - N/A   Clear
6:55 PM 19.4 °F 12.8 °F -5.8 °F 33% 30.01 in - NNE 4.6 mph - N/A   Clear
7:00 PM 19 °F - -5 °F 19%  in 25 mi NNE 4.6 mph - -  
7:55 PM 17.6 °F 12.3 °F -9.4 °F 30% 30.01 in - NE 3.5 mph - N/A   Clear
8:55 PM 17.6 °F 12.3 °F -9.4 °F 30% 30.01 in - ENE 3.5 mph - N/A   Clear
10:00 PM 18 °F - -13 °F 11%  in 6 mi 2.3 mph - -  
10:55 PM 17.6 °F 9.3 °F -7.6 °F 32% 30.01 in - North 5.8 mph - N/A   Clear
11:55 PM 17.6 °F - -11.2 °F 27% 30.01 in - Variable 2.3 mph - N/A   Clear